Weather History for Hastings, NE

Change the Weather History Date:

Friday, December 14, 2012

  Actual Average Record
Temperature  
Mean Temperature 33 °F 28 °F  
Max Temperature 50 °F 37 °F 64 °F (1966)
Min Temperature 15 °F 18 °F -13 °F (1917)
Degree Days  
Heating Degree Days 32 38  
Month to date heating degree days 398 499  
Since 1 July heating degree days 1657 1780  
Cooling Degree Days 0 0  
Month to date cooling degree days 0 0  
Year to date cooling degree days 1339 1077  
Moisture  
Dew Point 31 °F    
Average Humidity 71    
Maximum Humidity 92    
Minimum Humidity 50    
Precipitation  
Precipitation 0.14 in 0.01 in 0.62 in (1992)
Month to date precipitation 0.14 0.40  
Year to date precipitation 18.92 26.90  
Snow  
Snow 0.00 in 0.20 in 5.00 in (1973)
Month to date snowfall 0.0 2.6  
Since 1 July snowfall 0.3 6.4  
Snow Depth 0.00 in    
Sea Level Pressure  
Sea Level Pressure 29.77 in    
Wind  
Wind Speed 7 mph (SE)    
Max Wind Speed 18 mph    
Max Gust Speed 23 mph    
Visibility 9 miles    
Events Rain    
T = Trace of Precipitation, MM = Missing Value Source: NWS Daily Summary

Daily Weather History Graph

Daily Weather History Graph

Search for Another Location

Airport:

Trip Planner

Search our weather history database for the weather conditions in past years. The results will help you decide how hot, cold, wet, or windy it might be!

Date:

Astronomy

Dec. 14, 2012 Rise Set
Actual Time 7:49 AM CST 5:07 PM CST
Civil Twilight 7:19 AM CST 5:38 PM CST
Nautical Twilight 6:44 AM CST 6:12 PM CST
Astronomical Twilight 6:11 AM CST 6:45 PM CST
Moon 8:55 AM CST (12/14) 7:02 PM CST (12/14)
Length of Visible Light 10h 19m
Length of Day
9h 17m
Waxing Crescent, 3% of the Moon is Illuminated
Dec 14
Waxing Crescent
Dec 19
First Quarter
Dec 28
Full
Jan 4
Last Quarter
Jan 11
New

Hourly Weather History & Observations

Time (CST) Temp. Windchill Dew Point Humidity Pressure Visibility Wind Dir Wind Speed Gust Speed Precip Events Conditions
12:53 AM 21.0 °F - 15.1 °F 78% 30.01 in 10.0 mi Calm Calm - N/A   Clear
1:53 AM 19.9 °F 14.9 °F 14.0 °F 78% 29.99 in 10.0 mi NE 3.5 mph - N/A   Clear
2:53 AM 19.0 °F 12.3 °F 12.9 °F 77% 29.97 in 10.0 mi ENE 4.6 mph - N/A   Clear
3:53 AM 19.0 °F 12.3 °F 15.1 °F 85% 29.96 in 10.0 mi NNE 4.6 mph - N/A   Clear
4:53 AM 17.1 °F 8.7 °F 12.9 °F 84% 29.95 in 10.0 mi East 5.8 mph - N/A   Clear
5:53 AM 18.0 °F - 14.0 °F 84% 29.94 in 10.0 mi Calm Calm - N/A   Clear
6:53 AM 17.1 °F 11.7 °F 12.0 °F 81% 29.94 in 10.0 mi NNE 3.5 mph - N/A   Clear
7:53 AM 16.0 °F 10.4 °F 12.0 °F 84% 29.95 in 9.0 mi SE 3.5 mph - N/A   Clear
8:53 AM 21.9 °F - 17.1 °F 82% 29.92 in 9.0 mi Calm Calm - N/A   Clear
9:53 AM 32.0 °F 27.5 °F 24.1 °F 73% 29.91 in 10.0 mi South 4.6 mph - N/A   Clear
10:53 AM 39.0 °F 33.4 °F 27.0 °F 62% 29.89 in 10.0 mi South 8.1 mph - N/A   Clear
11:53 AM 46.0 °F 40.6 °F 30.0 °F 54% 29.84 in 10.0 mi South 11.5 mph - N/A   Clear
12:53 PM 48.0 °F - 30.9 °F 52% 29.80 in 10.0 mi South 12.7 mph 19.6 mph N/A   Clear
1:53 PM 46.0 °F 41.0 °F 34.0 °F 63% 29.78 in 10.0 mi South 10.4 mph 23.0 mph N/A   Clear
2:53 PM 46.9 °F - 36.0 °F 66% 29.73 in 10.0 mi South 9.2 mph - N/A   Clear
3:53 PM 48.9 °F - 37.9 °F 66% 29.73 in 10.0 mi South 8.1 mph - N/A   Clear
4:53 PM 50.0 °F - 39.0 °F 66% 29.72 in 10.0 mi South 6.9 mph - N/A   Overcast
5:53 PM 46.9 °F - 41.0 °F 80% 29.69 in 4.0 mi ESE 8.1 mph - 0.03 in Rain Rain
6:38 PM 46.4 °F 41.1 °F 41.0 °F 81% 29.66 in 10.0 mi SSE 11.5 mph - 0.02 in   Overcast
6:53 PM 46.0 °F 40.2 °F 42.1 °F 86% 29.71 in 10.0 mi SSE 12.7 mph - 0.02 in Rain Light Rain
7:25 PM 44.6 °F 39.2 °F 42.8 °F 93% 29.61 in 10.0 mi SE 10.4 mph - 0.00 in Rain Light Rain
7:51 PM 44.6 °F 38.4 °F 42.8 °F 93% 29.62 in 8.0 mi SSE 12.7 mph - 0.01 in Rain Light Rain
7:53 PM 45.0 °F 39.3 °F 43.0 °F 93% 29.67 in 8.0 mi South 11.5 mph - 0.01 in Rain Light Rain
8:45 PM 44.6 °F 38.4 °F 42.8 °F 93% 29.56 in 10.0 mi SSE 12.7 mph 19.6 mph 0.00 in   Overcast
8:53 PM 45.0 °F 38.2 °F 43.0 °F 93% 29.60 in 10.0 mi SSE 15.0 mph 21.9 mph 0.00 in   Overcast
9:21 PM 44.6 °F 38.4 °F 42.8 °F 93% 29.55 in 10.0 mi SSE 12.7 mph 21.9 mph N/A   Overcast
9:53 PM 45.0 °F 38.9 °F 43.0 °F 93% 29.55 in 8.0 mi SSE 12.7 mph 19.6 mph N/A   Overcast
10:53 PM 44.1 °F 38.6 °F 42.1 °F 93% 29.52 in 8.0 mi SSE 10.4 mph - 0.00 in Rain Light Rain
11:53 PM 43.0 °F 37.7 °F 42.1 °F 97% 29.47 in 3.0 mi SE 9.2 mph - 0.07 in Rain Light Rain